This is the latest recevied weather packets stored in our database for station/object N3DXC. If no packets are shown the sender has not sent any weather packets the latest 10 day(s).
| Time | Temp. | Humidity | Pressure | Rain* | Wind** | Luminosity | Snow |
|---|---|---|---|---|---|---|---|
| 1778195684 | 12.22° C | 41% | 1010.4 hPa | 0 mm | - | - | - |
| 1778195384 | 12.22° C | 41% | 1010.3 hPa | 0 mm | - | - | - |
| 1778195083 | 12.22° C | 41% | 1010.3 hPa | 0 mm | - | - | - |
| 1778194784 | 12.22° C | 43% | 1010.3 hPa | 0 mm | - | - | - |
| 1778194484 | 12.78° C | 41% | 1010.3 hPa | 0 mm | - | - | - |
| 1778194184 | 12.78° C | 41% | 1010.2 hPa | 0 mm | - | - | - |
| 1778193884 | 12.78° C | 42% | 1010.2 hPa | 0 mm | - | - | - |
| 1778193584 | 12.78° C | 42% | 1010.1 hPa | 0 mm | - | - | - |
| 1778193284 | 12.78° C | 44% | 1010.1 hPa | 0 mm | - | - | - |
| 1778192984 | 12.78° C | 41% | 1010 hPa | 0 mm | - | - | - |
| 1778192684 | 12.78° C | 41% | 1010 hPa | 0 mm | - | - | - |
| 1778192086 | 12.78° C | 44% | 1010.1 hPa | 0 mm | - | - | - |
| 1778191785 | 12.78° C | 42% | 1010.1 hPa | 0 mm | - | - | - |
| 1778191517 | 12.78° C | 43% | 1010.1 hPa | 0 mm | - | - | - |
| 1778191484 | 12.78° C | 43% | 1010.1 hPa | 0 mm | - | - | - |
| 1778191184 | 13.33° C | 44% | 1009.9 hPa | 0 mm | - | - | - |
| 1778190884 | 12.78° C | 44% | 1009.8 hPa | 0 mm | - | - | - |
| 1778190584 | 12.78° C | 44% | 1009.9 hPa | 0 mm | - | - | - |
| 1778190284 | 12.78° C | 44% | 1010 hPa | 0 mm | - | - | - |
| 1778189983 | 12.78° C | 45% | 1010 hPa | 0 mm | - | - | - |
| 1778189384 | 12.78° C | 44% | 1010 hPa | 0 mm | - | - | - |
| 1778189084 | 13.33° C | 45% | 1009.8 hPa | 0 mm | - | - | - |
| 1778188784 | 13.33° C | 47% | 1009.6 hPa | 0 mm | - | - | - |
| 1778188484 | 13.33° C | 46% | 1009.6 hPa | 0 mm | - | - | - |
| 1778188184 | 13.33° C | 47% | 1009.8 hPa | 0 mm | - | - | - |
* Rain latest hour (hover to see other rain measurements)
** Current wind speed in m/s (hover to see current wind gust speed)